Concordia, KS

10:17 PM CDT on October 15, 2019 (GMT -0500)
Blosser Municipal

Weather History for KCNK - June, 2019

Change the Weather History Date:

Sunday, June 2, 2019

  Actual Average Record
Temperature  
Mean Temperature 70 °F 69 °F  
Max Temperature 83 °F 80 °F 96 °F (2002)
Min Temperature 57 °F 58 °F 42 °F (1969)
Degree Days  
Heating Degree Days 0 1  
Month to date heating degree days 0 2  
Since 1 June heating degree days 0 2  
Since 1 July heating degree days 5821 5397  
Cooling Degree Days 5 5  
Month to date cooling degree days 16 10  
Year to date cooling degree days 116 99  
Since 1 June cooling degree days 16 10  
Growing Degree Days 20 (Base 50)    
Moisture  
Dew Point 52 °F    
Average Humidity 56    
Maximum Humidity 80    
Minimum Humidity 31    
Precipitation  
Precipitation 0.00 in 0.14 in 2.40 in (1962)
Month to date precipitation 0.00 0.28  
Year to date precipitation 14.59 10.27  
Snow  
Snow 0.00 in 0.00 in T in (1973)
Month to date snowfall 0.0 0.0  
Year to date snowfall 32.3 13.7  
Since 1 July snowfall 48.2 20.2  
Snow Depth 0.00 in    
Sea Level Pressure  
Sea Level Pressure 29.97 in    
Wind  
Wind Speed 7 mph (East)    
Max Wind Speed 17 mph    
Max Gust Speed 21 mph    
Visibility 10 miles    
Events      
T = Trace of Precipitation, MM = Missing Value Source: NWS Daily Summary

Daily Weather History Graph

Daily Weather History Graph

Search for Another Location

Airport or City:

Astronomy

Jun. 02, 2019 Rise Set
Actual Time 6:04 AM CDT 8:52 PM CDT
Civil Twilight 5:33 AM CDT 9:24 PM CDT
Nautical Twilight 4:53 AM CDT 10:04 PM CDT
Astronomical Twilight 4:07 AM CDT 10:50 PM CDT
Moon 5:45 AM CDT (6/2) 8:13 PM CDT (6/2)
Length of Visible Light 15h 51m
Length of Day
14h 47m
Waning Crescent, 1% of the Moon is Illuminated
Jun 2
Waning Crescent
Jun 3
New
Jun 10
First Quarter
Jun 17
Full
Jun 25
Last Quarter

Hourly Weather History & Observations

Time (CDT) Temp. Dew Point Humidity Pressure Visibility Wind Dir Wind Speed Gust Speed Precip Events Conditions
12:55 AM 64.9 °F 52.0 °F 63% 29.97 in 10.0 mi NE 4.6 mph - N/A   Clear
1:55 AM 63.0 °F 51.1 °F 65% 29.96 in 10.0 mi NE 5.8 mph - N/A   Clear
2:55 AM 63.0 °F 51.1 °F 65% 29.97 in 10.0 mi East 3.5 mph - N/A   Clear
3:55 AM 61.0 °F 51.1 °F 70% 29.96 in 10.0 mi Calm Calm - N/A   Clear
4:55 AM 59.0 °F 51.1 °F 75% 29.97 in 10.0 mi NNE 6.9 mph - N/A   Clear
5:55 AM 57.9 °F 51.1 °F 78% 29.98 in 10.0 mi Calm Calm - N/A   Partly Cloudy
6:55 AM 57.9 °F 52.0 °F 81% 29.99 in 10.0 mi ENE 5.8 mph - N/A   Clear
7:55 AM 61.0 °F 52.0 °F 72% 30.02 in 10.0 mi East 4.6 mph - N/A   Clear
8:55 AM 66.0 °F 53.1 °F 63% 30.02 in 10.0 mi ENE 8.1 mph - N/A   Partly Cloudy
9:55 AM 70.0 °F 53.1 °F 55% 30.03 in 10.0 mi East 6.9 mph - N/A   Clear
10:55 AM 73.0 °F 53.1 °F 49% 30.02 in 10.0 mi East 8.1 mph - N/A   Clear
11:55 AM 75.9 °F 52.0 °F 43% 30.02 in 10.0 mi East 10.4 mph 17.3 mph N/A   Clear
12:55 PM 78.1 °F 51.1 °F 39% 30.01 in 10.0 mi East 8.1 mph - N/A   Clear
1:55 PM 80.1 °F 48.9 °F 34% 30.00 in 10.0 mi East 9.2 mph - N/A   Clear
2:55 PM 81.0 °F 50.0 °F 34% 29.98 in 10.0 mi East 6.9 mph - N/A   Clear
3:55 PM 82.9 °F 50.0 °F 32% 29.95 in 10.0 mi ESE 6.9 mph - N/A   Clear
4:38 PM 82.0 °F 48.9 °F 31% 29.98 in 8.0 mi North - - N/A   Partly Cloudy
4:55 PM 82.0 °F 48.9 °F 31% 29.94 in 10.0 mi SE 11.5 mph - N/A   Partly Cloudy
5:55 PM 82.0 °F 48.9 °F 31% 29.93 in 10.0 mi SSE 12.7 mph - N/A   Clear
7:55 PM 77.0 °F 53.1 °F 43% 29.92 in 9.0 mi SE 10.4 mph - N/A   Clear
8:55 PM 71.1 °F 55.0 °F 57% 29.93 in 10.0 mi SE 5.8 mph - N/A   Clear
9:55 PM 68.0 °F 55.0 °F 63% 29.93 in 8.0 mi SE 6.9 mph - N/A   Clear
10:55 PM 69.1 °F 55.0 °F 61% 29.95 in 10.0 mi ESE 5.8 mph - N/A   Clear
11:55 PM 66.9 °F 55.0 °F 66% 29.96 in 10.0 mi SE 8.1 mph - N/A   Clear